SCOUT X-4 DEB

Satellite information

Favourite Embed

Satellite Type and Status

DEBRISIN ORBIT

Key statistics

Satellite SCOUT X-4 DEB at a glance.

Uptime

21780

Days in orbit

Revolutions

≈ 14.6

Per day

Orbit

LEO

Low Earth Orbit

Inclination

59.7

Latest

Satellite identification and parameters

Extended collection of information and parameters for SCOUT X-4 DEB.

Object identification

Identified? True

Debris? True

Object name: SCOUT X-4 DEB

International designator: 1965-093D

Object number (NORAD): 2088

Object ID (CCSDS): 2088

Country: UNITED STATES OF AMERICA (US)

Current information (Y/N): Y

RCS size: SMALL

Orbital parameters

Period: 98.563 minutes

Inclination: 59.7164 deg

SMA: 7068.098 km

Apoapsis: 752.414 km

Periapsis: 627.512 km

RAAN: 323.8368 deg

Eccentricy: 0.0088356

Argument of periapsis: 95.6497 deg

Mean anomaly: 265.4634 deg

Mean motion: 14.60995704 rev/day

Mean motion (dot): 0.00001218 rev/day2

B* drag term: 0.00026784 1/REarth

Two-line elements (TLE)

Creation date: July 6, 2025, 6:05 p.m.

Reference frame: TEME

Reference center: EARTH

Epoch: July 6, 2025, 1:57 p.m. UTC

TLE line 0: 0 SCOUT X-4 DEB

TLE line 1: 1 02088U 65093D 25187.58137216 .00001218 00000-0 26784-3 0 9999

TLE line 2: 2 02088 59.7164 323.8368 0088356 95.6497 265.4634 14.60995704103374

Live tracking on map

Real-time ground track for satellite SCOUT X-4 DEB.

In-orbit conjunctions

A list of the most updated potential collisions computed for object SCOUT X-4 DEB.

Target Orbit TCA Probability of collision Miss distance Type
FENGYUN 1C DEB SSO 2025-02-22 23:40:14 0.0001662714 383.0 (m) DEBRIS

Associated space launch

The NRL Solrad 8 satellite was one of the Solrad series that began in 1960 to provide continuous coverage of solar radiation with a set of standard photometers.

SCOUT X-4 DEB was lifted into orbit during the mission ‘Scout X-4 | Solrad 8’, on board a Scout X-4 space rocket.

The launch took place on Nov. 19, 1965, 4:48 a.m. from Launch Area 3A.

For more information about the launch, click the button.

Launch to space Scout X-4 | Solrad 8
Scout X-4 | Solrad 8

Agency: N/A

Status: Launch Successful

Launch date: Nov. 19, 1965, 4:48 a.m. UTC

Rocket: Scout X-4

Launch pad: Launch Area 3A

Location: Wallops Flight Facility, Virginia, USA

...

Latest news about this satellite

There are no fresh news available about this satellite. Check back as we update our databases every day.


Newsletter sign-up

Weekly statistics, charts and insights to help you stay on top of the space industry.